Regional Weather Roundup
Issued by NWS Grand Forks, ND

Home | Current Version | Previous Version | Graphics & Text | Print | Product List | Glossary On
Versions: 1 2 3 4 5 6 7 8 9 10 11 12 13 14 15 16 17 18 19 20 21 22 23 24 25 26 27 28 29 30 31 32 33 34 35 36 37 38 39 40 41 42 43 44 45 46 47 48 49 50
000
ASUS43 KFGF 212110
RWRFGF
PRAIRIE TO PINES  WEATHER ROUNDUP
NATIONAL WEATHER SERVICE EASTERN NORTH DAKOTA/GRAND FORKS ND
400 PM CDT THU SEP 21 2017

 **SATELLITE DATA USED TO AUGMENT SKY COVER AT AUTOMATED STATIONS**
 *****  WEATHER ACROSS EASTERN NORTH DAKOTA  *****

CITY           SKY/WX    TMP DP  RH WIND       PRES   REMARKS
GRAND FORKS    FAIR      81  47  30 S18       29.68F
GRAND FRKS AFB FAIR      79  44  28 SE17G23   29.68F
DEVILS LAKE    CLOUDY    76  55  48 S13       29.67F
FARGO          PTSUNNY   81  47  30 SE18G24   29.68F
WAHPETON ARPT  CLOUDY    81  55  41 SE12G20   29.70F
$$

 ***** WEATHER ACROSS CENTRAL AND WESTERN NORTH DAKOTA  *****

CITY           SKY/WX    TMP DP  RH WIND       PRES   REMARKS
BISMARCK       FAIR      82  54  37 W16       29.64R
MINOT          FAIR      73  44  35 NW6       29.69R
JAMESTOWN      FAIR      81  53  37 S16       29.65F
MINOT AFB      FAIR      67  44  43 N7        29.69R
GARRISON         N/A     71  43  36 N10       29.68R
WILLISTON      CLOUDY    60  39  45 N7        29.77R
DICKINSON      FAIR      70  44  39 N12       29.72R
HETTINGER      FAIR      72  39  30 N15G22    29.72R
$$

 *****  OTHER AIRPORT OBSERVATIONS IN OUR AREA  *****

CITY           SKY/WX    TMP DP  RH WIND       PRES   REMARKS
WALHALLA       FAIR     N/A N/A N/A SE10G18   29.68S
GRAFTON AIRPOR FAIR      77  46  33 S18G28    29.71S
VALLEY CITY AR FAIR      81  50  34 SE18      29.68F
CANDO          CLOUDY    72  55  56 S8        29.68S
CAVALIER APRT  FAIR      77  46  33 S15       29.68S
GWINNER        MOCLDY    79  55  44 SE15      29.67F
SHEYENNE NWR     N/A     80  56  42 SE14      29.95S
ROLLA          CLOUDY    63  48  59 NE9       29.71F
 ***** THE ABOVE OBSERVATIONS ARE NON NWS ARE NOT QUALITY
       CONTROLLED AND MAY MIS-REPORT RAIN FOR SNOW...
$$

  *****  WEATHER ACROSS NORTHERN MINNESOTA  *****

CITY           SKY/WX    TMP DP  RH WIND       PRES   REMARKS
FLAG ISLAND    FAIR      72  48  43 S9        29.79F
WARROAD        FAIR      75  48  38 SE12G21   29.78F
ROSEAU         FAIR      75  46  35 SE10      29.76F
HALLOCK        CLOUDY    79  41  25 S21G26    29.70F
THF RVR FALLS  FAIR      79  44  28 SE22      29.74F
BAUDETTE       FAIR      75  45  34 SE18G25   29.80F
WASKISH        FAIR      73  50  43 SE10G21   29.81F
CROOKSTON      FAIR      79  45  29 S16G24    29.71F
$$
  *****  WEATHER ACROSS CENTRAL AND WEST MINNESOTA  *****

CITY           SKY/WX    TMP DP  RH WIND       PRES   REMARKS
FOSSTON        FAIR      77  46  33 SE14G24   29.76F
BEMIDJI        FAIR      73  49  42 SE15      29.80F
PARK RAPIDS    FAIR      77  50  38 SE15      29.79F
ELBOW LAKE     FAIR      78  64  63 SE15G21   29.74S HAZE
WADENA         FAIR      75  54  46 SE14      29.78F
DETROIT LAKES  FAIR      75  48  38 SE12      29.77F
MOORHEAD       FAIR      81  46  30 S18       29.71F
FERGUS FALLS   PTSUNNY   79  57  47 SE16      29.72F
MORRIS MN      FAIR      82  64  54 SE16      29.72F
STAPLES          N/A     77  52  41 SE6       29.79
$$
  *****  WEATHER ELSEWHERE ACROSS MINNESOTA  *****

CITY           SKY/WX    TMP DP  RH WIND       PRES   REMARKS
DULUTH         FAIR      69  57  65 E15       29.92F
INTRNTL FALLS  FAIR      71  47  42 SE15G23   29.86F
ELY            FAIR      72  45  37 SE10G21   29.94S
CLOQUET        FAIR      66  55  68 E12       29.91F
WHEATON        PTSUNNY   81  63  54 SE16G23   29.71F
BRAINERD       FAIR      74  53  48 E12G21    29.82F
HIBBING        FAIR      72  47  40 SE12      29.90F
ALEXANDRIA     FAIR      79  62  56 SE15G23   29.78F
SAINT CLOUD    FAIR      80  65  59 SE14      29.80F
MINNEAPOLIS    FAIR      83  69  62 SE14G22   29.82F
$$

  *****  WEATHER ACROSS SOUTH DAKOTA  *****

CITY           SKY/WX    TMP DP  RH WIND       PRES   REMARKS
SIOUX FALLS    FAIR      86  72  62 S17G28    29.69F HX  92
BROOKINGS      PTSUNNY   84  71  65 S22G29    29.70F
WATERTOWN      PTSUNNY   81  71  71 S21G26    29.68F
HURON          FAIR      83  67  58 S18G24    29.64F
SISSETON         N/A     83  65  54 SE21      29.67F
ABERDEEN       FAIR      86  65  49 S20G25    29.63F
MITCHELL       FAIR      86  68  54 S21G29    29.64F
PIERRE         FAIR      88  54  31 S18       29.58F
MOBRIDGE       FAIR      87  59  38 S12       29.59S
RAPID CITY     SUNNY     77  39  25 N15G25    29.69S
$$

  *****  SOME WEATHER IN NEARBY STATES *****

CITY           SKY/WX    TMP DP  RH WIND       PRES   REMARKS
GLASGOW MT     FAIR      59  31  34 W9        29.81R
GREAT FALLS MT FAIR      53  26  35 NE5       29.84S
CHEYENNE WY    FAIR      83  15   8 SE14G21   29.78F
SCOTTSBLUFF NE FAIR      87  43  21 E17       29.66S
OMAHA NE       FAIR      91  71  51 S24G32    29.74F HX  97
DES MOINES IA  FAIR      89  72  56 S24G30    29.83F HX  96
DAVENPORT IA   FAIR      82  66  58 SE9       29.98F
CHICAGO IL     PTSUNNY   94  61  33 S6        29.97F HX  94
EAU CLAIRE WI  FAIR      79  68  69 SE9       29.90F
LA CROSSE WI   SUNNY     90  64  43 SE14      29.89  HX  91
$$

  *****  SOME NATIONAL WEATHER *****

CITY           SKY/WX    TMP DP  RH WIND       PRES   REMARKS
LA GUARDIA NY  CLOUDY    79  63  57 N14       29.99R
RALEIGH NC     TSTM      74  68  81 CALM      30.02R
ATLANTA GA     FAIR      87  65  47 VRB3      30.00F
NEW ORLEANS LA FAIR      91  68  46 NE7       29.96F THUNDER HX  95
OKLAHOMA CITY  PTSUNNY   92  71  50 S21G29    29.85F HX  98
ALBUQUERQUE NM FAIR      83  29  14 S9        29.95F
SALT LAKE CITY PTSUNNY   56  41  57 NW16      29.71F
LOS ANGELES CA FAIR      70  55  59 W15G24    29.83F
BOISE ID       FAIR      56  35  45 NW10      29.81F
SEATTLE WA     PTSUNNY   57  48  72 VRB3      29.95S
$$

*** WEATHER ACROSS MANITOBA...SASKATCHEWAN AND ONTARIO ***
                ***ONTARIO***

CITY           SKY/WX    TMP DP  RH WIND       PRES   REMARKS
GERALDTON      MOSUNNY   72  43  35 SE6       30.04F
THUNDER BAY    SUNNY     66  55  68 E13       30.01F
SIOUX LOOKOUT  MOSUNNY   70  43  37 SE13G20   29.91F
TORONTO        SUNNY     81  59  47 E8        30.10S
BIG TROUT LK   PTSUNNY   66  46  48 SW13G20   29.84F
PICKLE LAKE    PTSUNNY   64  48  55 SE7       29.95F
DRYDEN         SUNNY     72  45  37 SE14G22   29.88F
KENORA         PTSUNNY   73  45  35 S17       29.82F
$$
                *** MANITOBA***

CITY           SKY/WX    TMP DP  RH WIND       PRES   REMARKS
BRANDON        PTSUNNY   57  54  88 SE7       29.73S
DAUPHIN        MOSUNNY   64  45  48 NW8       29.69R
ISLAND LAKE    CLOUDY    63  46  55 S13G21    29.73R
PILOT MOUND      N/A     64  50  59 N8          N/A
THE PAS        MOSUNNY   61  39  44 W15       29.65R
THOMPSON       PTSUNNY   63  45  51 S8        29.58S
WINNIPEG       PTSUNNY   75  48  38 SW10      29.72F
LYNN LAKE      LGT RAIN  41  39  93 NW8       29.65R
CHURCHILL      PTSUNNY   54  48  82 NE15      29.62R
GILLAM         MOSUNNY   68  45  42 S12G20    29.61R
$$
                ***SASKATCHEWAN***

CITY           SKY/WX    TMP DP  RH WIND       PRES   REMARKS
ESTEVAN        PTSUNNY   61  36  39 NW9       29.76R
KINDERSLEY     CLOUDY    46  34  61 NW9       29.78R
LLOYDMINSTER   LGT RAIN  43  37  81 NW14      29.78R
PRINCE ALBERT  PTSUNNY   54  39  58 NW10      29.73R
REGINA         MOSUNNY   55  37  50 W16G24    29.77R
YORKTON        SUNNY     63  37  39 NW6       29.71R
N. BATTLEFORD  PTSUNNY   46  39  76 NW12      29.77R
LA RONGE       DRIZZLE   48  43  81 NW10      29.71R
SASKATOON      CLOUDY    50  39  66 SW15G23   29.76R
SWIFT CURRENT  PTSUNNY   50  30  46 W20G28    29.79R
$$
NOTE: THESE ARE AUTOMATED STATIONS WITH LIMITED QUALITY CONTROL
      "FAIR" INDICATES FEW OR NO CLOUDS BELOW 12,000 FEET WITH NO
      SIGNIFICANT WEATHER AND/OR OBSTRUCTIONS TO VISIBILITY.
      SKY/WX - SKY CONDITION AND SIGNIFICANT WEATHER.
      TMP - AIR TEMPERATURE.    DP   - DEWPOINT TEMPERATURE.
      RH  - RELATIVE HUMIDITY.  PRES - PRESSURE.
      HX  - HEAT INDEX.         WCI  - WIND CHILL INDEX.
$




USA.gov is the U.S. government's official web portal to all federal, state and local government web resources and services.